QPF
0.00 0.00 0.00 0.00 0.01 0.01 0.02 0.02 0.03 0.04 0.03 0.03 0.04 0.07 0.10 0.10 0.09 0.07 0.05 0.04 0.04 0.08 0.10 0.07 0.04 0.02 0.02 0.02 0.02 0.02 0.02 0.03 0.03 0.02 0.01 0.02 0.03 0.03 0.03 0.03 0.02 0.02 0.01
0.00 0.00 0.00 0.00 0.00 0.01 0.01 0.01 0.02 0.04 0.03 0.02 0.03 0.04 0.07 0.10 0.11 0.09 0.06 0.05 0.04 0.05 0.08 0.10 0.09 0.06 0.03 0.02 0.03 0.03 0.03 0.02 0.02 0.02 0.01 0.01 0.02 0.03 0.03 0.03 0.02 0.02 0.02
0.00 0.00 0.00 0.00 0.00 0.00 0.01 0.01 0.01 0.02 0.03 0.01 0.01 0.02 0.03 0.06 0.10 0.10 0.07 0.05 0.04 0.04 0.05 0.07 0.09 0.10 0.08 0.05 0.03 0.03 0.04 0.03 0.03 0.02 0.02 0.01 0.02 0.03 0.04 0.04 0.03 0.02 0.02
0.00 0.00 0.00 0.00 0.00 0.00 0.00 0.00 0.00 0.00 0.01 0.01 0.01 0.01 0.02 0.04 0.06 0.09 0.09 0.06 0.05 0.04 0.04 0.04 0.05 0.07 0.08 0.08 0.07 0.06 0.05 0.05 0.05 0.05 0.03 0.02 0.02 0.03 0.05 0.04 0.04 0.02 0.01
0.00 0.00 0.00 0.00 0.00 0.00 0.00 0.00 0.00 0.00 0.00 0.01 0.01 0.01 0.01 0.03 0.04 0.05 0.07 0.07 0.05 0.04 0.04 0.03 0.03 0.05 0.06 0.06 0.06 0.06 0.07 0.08 0.07 0.06 0.05 0.04 0.03 0.04 0.05 0.05 0.04 0.02 0.01
0.00 0.00 0.00 0.00 0.00 0.00 0.00 0.00 0.00 0.00 0.00 0.00 0.00 0.01 0.01 0.02 0.03 0.04 0.04 0.05 0.05 0.04 0.04 0.04 0.03 0.04 0.04 0.04 0.05 0.05 0.06 0.07 0.08 0.08 0.07 0.06 0.04 0.04 0.04 0.05 0.04 0.03 0.02
0.00 0.00 0.00 0.00 0.00 0.00 0.00 0.00 0.00 0.00 0.00 0.00 0.00 0.00 0.02 0.02 0.03 0.03 0.04 0.04 0.04 0.04 0.04 0.03 0.03 0.03 0.03 0.02 0.03 0.04 0.04 0.05 0.07 0.08 0.08 0.07 0.05 0.05 0.05 0.05 0.04 0.03 0.02
0.00 0.00 0.00 0.00 0.00 0.00 0.00 0.00 0.00 0.00 0.00 0.00 0.00 0.00 0.01 0.02 0.03 0.03 0.03 0.03 0.02 0.02 0.02 0.02 0.02 0.02 0.02 0.02 0.03 0.03 0.03 0.03 0.04 0.05 0.06 0.05 0.06 0.07 0.07 0.06 0.06 0.04 0.02
0.01 0.01 0.00 0.00 0.00 0.00 0.00 0.00 0.00 0.00 0.00 0.00 0.00 0.00 0.01 0.01 0.02 0.03 0.05 0.04 0.02 0.02 0.01 0.01 0.01 0.01 0.03 0.04 0.05 0.05 0.04 0.03 0.04 0.05 0.05 0.06 0.08 0.10 0.11 0.11 0.10 0.08 0.05
0.01 0.01 0.01 0.01 0.01 0.01 0.01 0.01 0.00 0.00 0.00 0.00 0.00 0.00 0.00 0.01 0.01 0.02 0.04 0.06 0.04 0.02 0.01 0.01 0.01 0.01 0.03 0.04 0.05 0.05 0.05 0.03 0.04 0.05 0.05 0.06 0.06 0.07 0.08 0.09 0.09 0.08 0.06
0.01 0.01 0.01 0.01 0.01 0.01 0.01 0.01 0.01 0.01 0.00 0.00 0.00 0.00 0.00 0.00 0.00 0.01 0.03 0.04 0.05 0.04 0.03 0.02 0.01 0.01 0.02 0.03 0.04 0.05 0.04 0.04 0.05 0.06 0.06 0.06 0.06 0.06 0.05 0.05 0.05 0.06 0.06
0.00 0.00 0.00 0.00 0.01 0.01 0.01 0.01 0.01 0.01 0.01 0.01 0.01 0.01 0.01 0.01 0.00 0.01 0.02 0.03 0.04 0.05 0.04 0.03 0.02 0.02 0.02 0.03 0.03 0.04 0.04 0.05 0.06 0.07 0.07 0.07 0.07 0.06 0.05 0.04 0.04 0.04 0.04
0.00 0.00 0.00 0.00 0.01 0.01 0.01 0.01 0.01 0.01 0.01 0.01 0.01 0.01 0.01 0.01 0.01 0.01 0.02 0.03 0.03 0.03 0.03 0.03 0.03 0.03 0.03 0.03 0.03 0.03 0.04 0.04 0.04 0.05 0.06 0.06 0.07 0.06 0.05 0.05 0.04 0.04 0.05
0.00 0.00 0.01 0.01 0.01 0.01 0.01 0.01 0.01 0.01 0.01 0.01 0.02 0.02 0.01 0.01 0.01 0.01 0.02 0.04 0.04 0.03 0.03 0.03 0.03 0.03 0.04 0.04 0.03 0.03 0.04 0.04 0.05 0.05 0.05 0.05 0.06 0.07 0.07 0.06 0.05 0.05 0.05
0.01 0.00 0.01 0.01 0.01 0.01 0.01 0.01 0.01 0.01 0.02 0.03 0.03 0.03 0.03 0.03 0.02 0.02 0.03 0.05 0.06 0.06 0.05 0.04 0.03 0.03 0.04 0.04 0.04 0.04 0.04 0.05 0.05 0.05 0.05 0.04 0.05 0.06 0.07 0.07 0.06 0.05 0.05
0.01 0.01 0.01 0.01 0.01 0.01 0.01 0.01 0.01 0.01 0.01 0.02 0.02 0.03 0.03 0.03 0.02 0.02 0.02 0.03 0.04 0.05 0.05 0.05 0.04 0.04 0.04 0.04 0.04 0.04 0.05 0.05 0.05 0.06 0.05 0.05 0.04 0.04 0.05 0.06 0.07 0.06 0.05
0.03 0.02 0.02 0.02 0.01 0.01 0.01 0.01 0.02 0.01 0.01 0.01 0.01 0.02 0.03 0.03 0.03 0.02 0.02 0.03 0.03 0.03 0.04 0.04 0.03 0.03 0.03 0.03 0.04 0.04 0.04 0.04 0.04 0.05 0.05 0.05 0.05 0.04 0.04 0.05 0.06 0.06 0.05
0.04 0.04 0.03 0.03 0.02 0.02 0.03 0.02 0.02 0.02 0.02 0.01 0.01 0.02 0.03 0.03 0.03 0.03 0.03 0.03 0.03 0.03 0.03 0.03 0.03 0.03 0.03 0.04 0.04 0.04 0.04 0.04 0.04 0.04 0.04 0.05 0.05 0.05 0.04 0.04 0.05 0.05 0.05
0.05 0.05 0.04 0.03 0.03 0.03 0.04 0.03 0.03 0.03 0.02 0.02 0.01 0.01 0.02 0.03 0.03 0.04 0.05 0.04 0.04 0.04 0.04 0.03 0.03 0.03 0.03 0.04 0.04 0.04 0.04 0.04 0.03 0.03 0.03 0.04 0.04 0.05 0.06 0.05 0.04 0.04 0.05
0.04 0.05 0.05 0.04 0.04 0.05 0.05 0.04 0.04 0.04 0.03 0.02 0.02 0.02 0.02 0.03 0.03 0.04 0.06 0.06 0.05 0.04 0.04 0.03 0.03 0.04 0.04 0.04 0.04 0.04 0.04 0.04 0.04 0.04 0.03 0.03 0.03 0.05 0.06 0.06 0.06 0.05 0.05
0.03 0.04 0.04 0.04 0.05 0.06 0.05 0.05 0.05 0.05 0.04 0.03 0.03 0.03 0.04 0.04 0.03 0.03 0.04 0.05 0.05 0.04 0.04 0.04 0.03 0.04 0.04 0.04 0.05 0.05 0.05 0.05 0.05 0.05 0.04 0.04 0.04 0.05 0.05 0.06 0.06 0.05 0.05
0.02 0.03 0.03 0.04 0.04 0.05 0.05 0.05 0.05 0.05 0.05 0.04 0.03 0.03 0.04 0.03 0.03 0.03 0.03 0.04 0.04 0.05 0.05 0.05 0.04 0.04 0.04 0.05 0.05 0.05 0.05 0.04 0.04 0.05 0.05 0.05 0.05 0.05 0.05 0.05 0.05 0.05 0.05
0.02 0.02 0.03 0.03 0.03 0.03 0.03 0.03 0.04 0.04 0.03 0.03 0.03 0.03 0.03 0.04 0.03 0.03 0.03 0.04 0.04 0.04 0.05 0.06 0.06 0.05 0.04 0.04 0.05 0.05 0.05 0.05 0.05 0.05 0.06 0.06 0.05 0.05 0.06 0.06 0.05 0.04 0.04
0.02 0.02 0.02 0.02 0.02 0.02 0.02 0.02 0.02 0.03 0.03 0.03 0.03 0.03 0.03 0.04 0.04 0.03 0.03 0.04 0.04 0.05 0.04 0.05 0.05 0.05 0.05 0.05 0.05 0.05 0.06 0.06 0.06 0.07 0.07 0.07 0.06 0.06 0.06 0.06 0.05 0.04 0.04
0.02 0.02 0.02 0.02 0.02 0.02 0.02 0.02 0.02 0.02 0.02 0.03 0.03 0.03 0.03 0.03 0.03 0.03 0.04 0.04 0.04 0.04 0.05 0.05 0.05 0.05 0.05 0.05 0.05 0.05 0.06 0.06 0.07 0.07 0.08 0.07 0.07 0.07 0.06 0.06 0.06 0.06 0.06
0.02 0.02 0.02 0.02 0.02 0.02 0.02 0.02 0.02 0.02 0.02 0.02 0.02 0.03 0.03 0.03 0.03 0.03 0.04 0.04 0.04 0.04 0.04 0.04 0.05 0.05 0.05 0.05 0.05 0.05 0.06 0.06 0.06 0.07 0.08 0.08 0.07 0.06 0.06 0.05 0.05 0.05 0.05
MSLP
1016.26 1016.95 1017.56 1018.11 1018.58 1019.02 1019.43 1019.86 1020.30 1020.75 1021.22 1021.68 1022.10 1022.47 1022.78 1023.02 1023.22 1023.39 1023.56 1023.75 1023.96 1024.20 1024.45 1024.68 1024.84 1024.91 1024.87 1024.68 1024.37 1023.96 1023.48 1022.97 1022.48 1022.03 1021.67 1021.38 1021.18 1021.03 1020.93 1020.83 1020.72 1020.59 1020.42
1015.77 1016.44 1017.05 1017.58 1018.06 1018.49 1018.90 1019.31 1019.74 1020.17 1020.61 1021.03 1021.41 1021.74 1021.99 1022.19 1022.34 1022.47 1022.59 1022.75 1022.94 1023.17 1023.42 1023.65 1023.84 1023.95 1023.96 1023.83 1023.58 1023.22 1022.79 1022.33 1021.86 1021.44 1021.08 1020.80 1020.58 1020.42 1020.30 1020.19 1020.07 1019.92 1019.74
1015.40 1016.04 1016.62 1017.13 1017.58 1017.99 1018.38 1018.77 1019.17 1019.58 1019.98 1020.36 1020.70 1020.97 1021.19 1021.34 1021.44 1021.52 1021.61 1021.72 1021.88 1022.07 1022.30 1022.53 1022.73 1022.86 1022.90 1022.83 1022.64 1022.35 1021.99 1021.59 1021.18 1020.79 1020.46 1020.18 1019.97 1019.79 1019.65 1019.52 1019.37 1019.21 1019.02
1015.15 1015.74 1016.27 1016.73 1017.14 1017.51 1017.87 1018.23 1018.59 1018.96 1019.32 1019.66 1019.96 1020.20 1020.38 1020.50 1020.57 1020.61 1020.66 1020.73 1020.84 1021.00 1021.19 1021.39 1021.58 1021.72 1021.78 1021.75 1021.62 1021.40 1021.11 1020.77 1020.42 1020.08 1019.77 1019.50 1019.28 1019.09 1018.92 1018.77 1018.60 1018.42 1018.21
1015.00 1015.53 1016.00 1016.41 1016.76 1017.09 1017.40 1017.71 1018.03 1018.35 1018.67 1018.97 1019.24 1019.45 1019.61 1019.70 1019.75 1019.78 1019.79 1019.83 1019.90 1020.01 1020.15 1020.31 1020.47 1020.59 1020.66 1020.65 1020.56 1020.39 1020.15 1019.87 1019.57 1019.26 1018.97 1018.70 1018.47 1018.25 1018.06 1017.87 1017.68 1017.49 1017.28
1014.99 1015.44 1015.84 1016.18 1016.48 1016.75 1017.01 1017.27 1017.54 1017.82 1018.10 1018.36 1018.59 1018.78 1018.91 1018.99 1019.03 1019.04 1019.03 1019.03 1019.06 1019.12 1019.21 1019.31 1019.42 1019.51 1019.56 1019.56 1019.48 1019.34 1019.14 1018.89 1018.61 1018.32 1018.03 1017.74 1017.48 1017.24 1017.01 1016.80 1016.60 1016.40 1016.21
1015.14 1015.51 1015.84 1016.12 1016.36 1016.58 1016.79 1016.99 1017.21 1017.44 1017.66 1017.88 1018.07 1018.23 1018.34 1018.40 1018.42 1018.41 1018.38 1018.34 1018.33 1018.33 1018.36 1018.40 1018.45 1018.49 1018.51 1018.48 1018.40 1018.27 1018.08 1017.84 1017.56 1017.26 1016.94 1016.63 1016.33 1016.05 1015.79 1015.55 1015.34 1015.15 1014.99
1015.47 1015.77 1016.03 1016.26 1016.45 1016.62 1016.78 1016.94 1017.10 1017.27 1017.44 1017.60 1017.74 1017.84 1017.91 1017.94 1017.93 1017.89 1017.82 1017.75 1017.68 1017.62 1017.58 1017.56 1017.54 1017.53 1017.50 1017.44 1017.34 1017.19 1016.99 1016.74 1016.44 1016.11 1015.76 1015.41 1015.06 1014.73 1014.44 1014.18 1013.97 1013.81 1013.69
1016.00 1016.24 1016.45 1016.63 1016.78 1016.92 1017.03 1017.14 1017.24 1017.34 1017.44 1017.52 1017.59 1017.63 1017.64 1017.62 1017.56 1017.47 1017.35 1017.22 1017.09 1016.97 1016.87 1016.78 1016.70 1016.63 1016.55 1016.45 1016.32 1016.15 1015.93 1015.66 1015.33 1014.97 1014.58 1014.17 1013.78 1013.41 1013.08 1012.81 1012.60 1012.47 1012.39
1016.70 1016.89 1017.06 1017.21 1017.33 1017.43 1017.51 1017.56 1017.60 1017.63 1017.64 1017.64 1017.62 1017.58 1017.51 1017.41 1017.28 1017.13 1016.95 1016.77 1016.58 1016.39 1016.22 1016.07 1015.94 1015.82 1015.70 1015.57 1015.42 1015.22 1014.98 1014.69 1014.33 1013.93 1013.50 1013.05 1012.61 1012.20 1011.84 1011.56 1011.36 1011.25 1011.23
1017.51 1017.67 1017.81 1017.93 1018.03 1018.10 1018.13 1018.13 1018.11 1018.06 1017.99 1017.89 1017.78 1017.64 1017.49 1017.30 1017.10 1016.88 1016.64 1016.39 1016.14 1015.91 1015.68 1015.49 1015.31 1015.15 1015.01 1014.86 1014.69 1014.48 1014.23 1013.91 1013.54 1013.11 1012.64 1012.16 1011.68 1011.24 1010.86 1010.57 1010.38 1010.29 1010.31
1018.39 1018.51 1018.63 1018.72 1018.79 1018.82 1018.81 1018.76 1018.67 1018.55 1018.39 1018.21 1018.01 1017.78 1017.54 1017.28 1017.00 1016.71 1016.41 1016.11 1015.82 1015.54 1015.28 1015.05 1014.85 1014.67 1014.51 1014.35 1014.18 1013.97 1013.71 1013.40 1013.02 1012.57 1012.08 1011.57 1011.07 1010.61 1010.22 1009.92 1009.73 1009.66 1009.70
1019.26 1019.34 1019.42 1019.48 1019.51 1019.50 1019.45 1019.34 1019.20 1019.01 1018.78 1018.53 1018.24 1017.94 1017.63 1017.30 1016.96 1016.62 1016.28 1015.94 1015.61 1015.31 1015.03 1014.79 1014.58 1014.39 1014.23 1014.08 1013.91 1013.71 1013.46 1013.15 1012.77 1012.33 1011.83 1011.32 1010.81 1010.33 1009.94 1009.63 1009.44 1009.38 1009.42
1020.05 1020.09 1020.12 1020.14 1020.12 1020.06 1019.96 1019.81 1019.61 1019.37 1019.09 1018.78 1018.45 1018.09 1017.73 1017.36 1016.98 1016.61 1016.24 1015.88 1015.54 1015.22 1014.94 1014.69 1014.48 1014.31 1014.15 1014.01 1013.85 1013.66 1013.43 1013.13 1012.76 1012.32 1011.84 1011.33 1010.82 1010.35 1009.96 1009.65 1009.46 1009.39 1009.42
1020.74 1020.73 1020.70 1020.65 1020.58 1020.47 1020.32 1020.13 1019.89 1019.61 1019.30 1018.95 1018.59 1018.21 1017.82 1017.42 1017.03 1016.64 1016.26 1015.90 1015.56 1015.24 1014.96 1014.72 1014.52 1014.35 1014.20 1014.07 1013.92 1013.74 1013.51 1013.22 1012.87 1012.46 1011.99 1011.50 1011.01 1010.56 1010.17 1009.87 1009.67 1009.59 1009.60
1021.31 1021.23 1021.13 1021.02 1020.89 1020.73 1020.53 1020.30 1020.04 1019.74 1019.41 1019.05 1018.67 1018.28 1017.88 1017.48 1017.09 1016.70 1016.32 1015.95 1015.62 1015.31 1015.03 1014.80 1014.60 1014.43 1014.28 1014.15 1014.00 1013.82 1013.60 1013.32 1012.99 1012.59 1012.15 1011.69 1011.23 1010.80 1010.43 1010.14 1009.94 1009.83 1009.81
1021.76 1021.62 1021.46 1021.28 1021.09 1020.88 1020.65 1020.39 1020.10 1019.79 1019.45 1019.09 1018.71 1018.32 1017.92 1017.52 1017.12 1016.73 1016.35 1015.99 1015.66 1015.35 1015.08 1014.84 1014.63 1014.46 1014.30 1014.15 1013.99 1013.81 1013.59 1013.32 1012.99 1012.62 1012.21 1011.77 1011.34 1010.95 1010.60 1010.32 1010.11 1009.99 1009.93
1022.12 1021.91 1021.69 1021.46 1021.22 1020.97 1020.71 1020.43 1020.13 1019.81 1019.47 1019.10 1018.72 1018.33 1017.92 1017.52 1017.11 1016.71 1016.33 1015.97 1015.63 1015.31 1015.03 1014.79 1014.57 1014.38 1014.20 1014.03 1013.85 1013.65 1013.42 1013.14 1012.83 1012.47 1012.08 1011.68 1011.28 1010.91 1010.59 1010.31 1010.11 1009.96 1009.86
1022.39 1022.14 1021.87 1021.60 1021.33 1021.05 1020.77 1020.47 1020.16 1019.83 1019.48 1019.11 1018.72 1018.31 1017.89 1017.47 1017.04 1016.63 1016.23 1015.85 1015.50 1015.18 1014.88 1014.62 1014.39 1014.17 1013.97 1013.77 1013.56 1013.33 1013.08 1012.79 1012.47 1012.12 1011.75 1011.38 1011.01 1010.66 1010.35 1010.09 1009.87 1009.69 1009.55
1022.56 1022.28 1022.00 1021.71 1021.42 1021.13 1020.83 1020.53 1020.21 1019.86 1019.50 1019.11 1018.69 1018.26 1017.81 1017.36 1016.92 1016.48 1016.06 1015.66 1015.29 1014.95 1014.64 1014.36 1014.10 1013.86 1013.62 1013.39 1013.15 1012.89 1012.61 1012.30 1011.97 1011.62 1011.25 1010.89 1010.54 1010.20 1009.90 1009.63 1009.39 1009.18 1008.98
1022.64 1022.36 1022.06 1021.77 1021.48 1021.19 1020.89 1020.58 1020.24 1019.88 1019.50 1019.08 1018.64 1018.17 1017.70 1017.21 1016.74 1016.27 1015.83 1015.42 1015.03 1014.67 1014.35 1014.04 1013.76 1013.49 1013.22 1012.95 1012.66 1012.36 1012.04 1011.70 1011.35 1010.98 1010.61 1010.24 1009.89 1009.56 1009.25 1008.96 1008.69 1008.44 1008.19
1022.62 1022.34 1022.06 1021.78 1021.49 1021.20 1020.90 1020.58 1020.23 1019.86 1019.45 1019.00 1018.53 1018.04 1017.53 1017.02 1016.52 1016.04 1015.58 1015.15 1014.75 1014.38 1014.03 1013.71 1013.40 1013.10 1012.79 1012.47 1012.13 1011.78 1011.41 1011.03 1010.63 1010.23 1009.84 1009.46 1009.09 1008.74 1008.41 1008.10 1007.80 1007.50 1007.20
1022.49 1022.23 1021.96 1021.69 1021.42 1021.13 1020.83 1020.50 1020.14 1019.75 1019.32 1018.86 1018.36 1017.85 1017.32 1016.80 1016.28 1015.79 1015.32 1014.88 1014.47 1014.08 1013.72 1013.37 1013.02 1012.67 1012.31 1011.93 1011.54 1011.12 1010.68 1010.24 1009.79 1009.35 1008.91 1008.50 1008.11 1007.73 1007.38 1007.04 1006.71 1006.38 1006.03
1022.28 1022.03 1021.78 1021.51 1021.24 1020.95 1020.64 1020.30 1019.94 1019.53 1019.09 1018.62 1018.12 1017.60 1017.07 1016.54 1016.03 1015.53 1015.05 1014.60 1014.17 1013.77 1013.37 1012.98 1012.58 1012.17 1011.73 1011.28 1010.80 1010.30 1009.79 1009.27 1008.75 1008.25 1007.77 1007.32 1006.90 1006.50 1006.13 1005.77 1005.42 1005.06 1004.69
1022.01 1021.76 1021.50 1021.23 1020.95 1020.66 1020.34 1019.99 1019.62 1019.22 1018.78 1018.31 1017.81 1017.30 1016.78 1016.26 1015.74 1015.24 1014.75 1014.28 1013.82 1013.37 1012.92 1012.46 1011.99 1011.49 1010.96 1010.41 1009.83 1009.23 1008.62 1008.02 1007.43 1006.87 1006.34 1005.85 1005.41 1005.00 1004.61 1004.25 1003.90 1003.54 1003.16
1021.69 1021.42 1021.15 1020.87 1020.57 1020.26 1019.94 1019.59 1019.22 1018.81 1018.39 1017.93 1017.46 1016.96 1016.45 1015.93 1015.41 1014.90 1014.38 1013.87 1013.36 1012.83 1012.30 1011.74 1011.16 1010.54 1009.90 1009.22 1008.52 1007.82 1007.11 1006.42 1005.76 1005.14 1004.57 1004.06 1003.60 1003.19 1002.82 1002.47 1002.14 1001.80 1001.45
Thickness
5383 5380 5378 5376 5373 5372 5371 5370 5370 5369 5370 5370 5372 5373 5374 5375 5376 5378 5380 5381 5383 5385 5385 5387 5390 5390 5390 5391 5392 5394 5396 5398 5406 5416 5417 5419 5420 5423 5426 5430 5434 5439 5443
5372 5369 5367 5364 5362 5360 5359 5359 5358 5357 5357 5357 5358 5359 5360 5361 5362 5364 5365 5366 5367 5370 5371 5373 5375 5375 5375 5376 5377 5380 5382 5384 5388 5397 5402 5404 5406 5409 5412 5416 5420 5424 5429
5361 5358 5355 5353 5351 5349 5348 5347 5346 5345 5345 5345 5345 5346 5347 5348 5348 5350 5351 5352 5353 5355 5356 5358 5360 5361 5362 5362 5364 5366 5368 5371 5374 5379 5387 5390 5393 5395 5398 5402 5406 5410 5414
5350 5347 5344 5342 5340 5338 5336 5334 5333 5333 5333 5332 5332 5333 5333 5334 5335 5336 5337 5339 5340 5342 5343 5344 5346 5347 5349 5349 5351 5353 5355 5358 5361 5365 5372 5377 5381 5383 5384 5390 5394 5398 5401
5339 5336 5333 5330 5328 5326 5324 5322 5321 5321 5320 5320 5320 5320 5320 5321 5322 5322 5324 5326 5328 5329 5331 5332 5333 5334 5334 5335 5337 5340 5342 5345 5348 5353 5359 5364 5369 5371 5374 5378 5382 5385 5388
5328 5325 5322 5319 5317 5314 5312 5311 5309 5309 5308 5307 5308 5308 5308 5309 5309 5309 5310 5313 5315 5317 5319 5320 5321 5322 5323 5324 5326 5328 5329 5332 5336 5340 5347 5352 5358 5360 5362 5365 5368 5372 5377
5316 5313 5310 5307 5305 5303 5301 5299 5298 5297 5296 5296 5296 5296 5297 5297 5296 5296 5298 5299 5302 5304 5305 5307 5310 5312 5312 5313 5315 5317 5318 5321 5324 5328 5334 5341 5345 5348 5351 5355 5357 5361 5366
5305 5302 5299 5295 5293 5291 5289 5288 5287 5285 5284 5284 5284 5284 5285 5286 5284 5285 5286 5288 5291 5293 5294 5296 5299 5301 5301 5302 5305 5307 5310 5313 5316 5319 5325 5330 5334 5336 5338 5342 5345 5348 5354
5294 5290 5287 5283 5281 5279 5278 5276 5275 5274 5273 5273 5272 5272 5273 5274 5273 5273 5274 5277 5281 5283 5284 5286 5288 5290 5292 5292 5295 5298 5303 5306 5308 5311 5315 5319 5323 5326 5328 5331 5335 5338 5344
5281 5277 5274 5271 5269 5267 5266 5264 5263 5262 5262 5261 5261 5261 5262 5263 5263 5262 5262 5266 5270 5273 5275 5277 5279 5280 5282 5283 5285 5289 5293 5298 5300 5304 5308 5311 5315 5319 5322 5324 5328 5330 5334
5268 5265 5262 5260 5257 5255 5254 5252 5251 5250 5250 5250 5251 5251 5252 5252 5252 5252 5252 5254 5258 5261 5265 5268 5270 5271 5272 5274 5277 5280 5284 5288 5291 5295 5300 5304 5308 5312 5316 5319 5322 5324 5328
5255 5253 5251 5248 5246 5244 5242 5241 5239 5239 5239 5240 5240 5242 5242 5242 5241 5242 5242 5244 5246 5250 5254 5257 5260 5262 5264 5266 5269 5272 5274 5277 5282 5287 5292 5297 5302 5306 5309 5313 5315 5317 5321
5244 5241 5239 5237 5235 5233 5231 5230 5228 5228 5228 5229 5229 5231 5232 5232 5231 5232 5233 5235 5237 5240 5244 5247 5249 5252 5255 5257 5261 5263 5266 5270 5275 5280 5285 5290 5294 5297 5301 5304 5307 5309 5312
5233 5231 5228 5226 5225 5222 5220 5218 5217 5216 5216 5216 5218 5220 5221 5222 5222 5222 5223 5225 5228 5231 5234 5237 5240 5242 5244 5247 5251 5254 5257 5261 5266 5272 5277 5281 5285 5288 5292 5296 5299 5302 5305
5222 5220 5218 5216 5214 5211 5209 5207 5205 5204 5203 5204 5205 5207 5209 5212 5212 5212 5213 5217 5219 5222 5225 5228 5230 5233 5235 5237 5241 5245 5248 5252 5256 5262 5267 5271 5276 5281 5284 5287 5290 5293 5296
5211 5209 5207 5205 5202 5201 5199 5198 5195 5193 5193 5192 5193 5195 5198 5199 5201 5203 5205 5207 5210 5212 5215 5218 5221 5223 5225 5228 5232 5236 5240 5243 5247 5252 5258 5262 5267 5271 5275 5278 5282 5285 5289
5199 5197 5195 5193 5191 5189 5188 5187 5187 5186 5184 5183 5184 5185 5186 5189 5191 5194 5197 5199 5200 5202 5205 5208 5211 5213 5216 5219 5222 5226 5231 5235 5239 5243 5249 5253 5257 5262 5266 5270 5274 5277 5280
5188 5186 5184 5182 5180 5178 5176 5175 5175 5175 5176 5176 5175 5175 5177 5179 5181 5185 5187 5188 5191 5192 5194 5197 5200 5203 5206 5210 5214 5218 5223 5227 5231 5235 5240 5244 5248 5253 5258 5262 5266 5268 5272
5179 5177 5174 5172 5170 5168 5167 5166 5165 5164 5165 5166 5167 5167 5167 5169 5171 5173 5175 5176 5179 5182 5184 5187 5190 5193 5197 5201 5205 5209 5214 5219 5224 5228 5232 5237 5241 5245 5250 5254 5258 5261 5263
5170 5167 5165 5163 5161 5160 5159 5157 5156 5156 5156 5156 5157 5157 5158 5159 5162 5164 5165 5166 5169 5171 5174 5178 5181 5184 5188 5192 5197 5202 5207 5212 5216 5221 5225 5230 5234 5238 5243 5247 5251 5254 5257
5162 5159 5156 5155 5153 5151 5149 5148 5148 5147 5147 5147 5147 5147 5147 5149 5152 5153 5155 5157 5160 5163 5166 5169 5173 5177 5181 5185 5190 5195 5199 5204 5209 5213 5218 5223 5227 5232 5236 5241 5245 5247 5249
5153 5151 5149 5146 5144 5143 5141 5140 5139 5138 5138 5138 5138 5138 5139 5140 5141 5143 5146 5149 5152 5155 5158 5161 5166 5170 5174 5178 5183 5188 5193 5198 5203 5207 5212 5217 5221 5226 5230 5234 5238 5241 5244
5145 5143 5141 5139 5136 5135 5134 5132 5130 5129 5129 5129 5129 5130 5131 5131 5132 5135 5137 5140 5144 5147 5151 5155 5160 5164 5168 5172 5177 5182 5187 5193 5198 5202 5207 5212 5216 5220 5224 5229 5232 5235 5239
5138 5135 5133 5131 5129 5127 5126 5124 5122 5121 5120 5120 5120 5121 5122 5123 5124 5127 5130 5133 5137 5141 5145 5150 5154 5159 5164 5168 5173 5178 5183 5187 5192 5198 5202 5207 5211 5215 5218 5223 5227 5231 5234
5130 5128 5125 5123 5121 5120 5118 5117 5115 5114 5113 5113 5113 5113 5114 5115 5118 5121 5124 5127 5131 5135 5140 5144 5149 5155 5161 5166 5170 5175 5180 5185 5190 5194 5199 5203 5207 5210 5214 5218 5222 5225 5228
5123 5120 5118 5116 5113 5112 5110 5109 5108 5107 5106 5106 5106 5106 5107 5109 5111 5114 5118 5122 5126 5130 5135 5140 5146 5151 5157 5162 5168 5173 5178 5183 5188 5192 5196 5200 5203 5207 5210 5213 5216 5220 5222